Regional Weather Roundup
Issued by NWS Albany, NY

Home | Current Version | Previous Version | Graphics & Text | Print | Product List | Glossary Off
Versions: 1 2 3 4 5 6 7 8 9 10 11 12 13 14 15 16 17 18 19 20 21 22 23 24 25 26 27 28 29 30 31 32 33 34 35 36 37 38 39 40 41 42 43 44 45 46 47 48 49 50

000
ASUS41 KALY 050110
RWRALY

NEW YORK STATE HOURLY WEATHER ROUNDUP
NATIONAL WEATHER SERVICE ALBANY NY
900 PM EDT SAT JUL 04 2015

NOTE: "FAIR" INDICATES FEW OR NO CLOUDS BELOW 12,000 FEET WITH NO
SIGNIFICANT WEATHER AND/OR NO OBSTRUCTIONS TO VISIBILITY.

NYZ032-033-038>043-046>054-057>066-NYZ062>081-050200-
EAST


CITY           SKY/WX    TMP DP  RH WIND       PRES   REMARKS
ALBANY         PTCLDY    65  61  87 CALM      29.98R
GLENS FALLS    CLEAR     63  60  90 SW3       29.97R
POUGHKEEPSIE   CLEAR     65  61  87 CALM      29.97R
NEWBURGH       CLEAR     66  63  88 SW5       30.00R
MONTGOMERY     CLEAR     64  61  90 CALM      29.98R
WHITE PLAINS   MOCLDY    68  60  75 CALM      29.98R
ISLIP          MOCLDY    70  57  63 E5        29.97R
NEW YORK CITY  MOCLDY    72  55  55 NE5       29.97R
CENTRAL PARK   MOCLDY    72  52  49 CALM      30.00R
$$

NYZ005>009-017-018-044>046-055-056-050200-
CENTRAL


CITY           SKY/WX    TMP DP  RH WIND       PRES   REMARKS
FULTON         CLOUDY    64  55  72 CALM      29.96R
SYRACUSE       MOCLDY    70  62  76 SW6       29.95R
ROME           PTCLDY    69  60  73 S6        29.96R
ELMIRA         LGT RAIN  67  64  90 CALM      29.99R
BINGHAMTON     PTCLDY    61  59  93 S5        30.02R
MONTICELLO     CLEAR     63  57  82 SW3       30.03R
$$

NYZ026>034-041>043-050200-
NORTH


CITY           SKY/WX    TMP DP  RH WIND       PRES   REMARKS
WATERTOWN      CLEAR     64  60  87 W7        29.94R
FORT DRUM      NOT AVBL
MASSENA        MOCLDY    68  60  75 CALM      29.92R
SARANAC LAKE   MOCLDY    63  62  97 CALM      29.96R FOG
PLATTSBURGH    CLOUDY    65  63  93 CALM      29.93R
$$

NYZ001>004-010>016-019>021-050200-
WEST


CITY           SKY/WX    TMP DP  RH WIND       PRES   REMARKS
NIAGARA FALLS  CLEAR     68  54  60 SW10      29.97R
BUFFALO        PTCLDY    67  55  65 SW10      29.99R
DUNKIRK        CLEAR     64  57  78 SW5       30.01S
JAMESTOWN      CLEAR     61  52  72 NW3       30.05R
WELLSVILLE     CLEAR     63  54  72 NW7       30.05R
ROCHESTER      PTCLDY    68  55  63 W3        29.98R
PENN YAN       CLEAR     65  64  97 CALM      29.99R
$$

             KEY
       WCI = WIND CHILL INDEX
       VSB = VISIBILITY
       HX  = HEAT INDEX
$$


USA.gov is the U.S. government's official web portal to all federal, state and local government web resources and services.